SCP
0 0 0 0 0 0 0 0 0 0 0 0 0 0 0 0 0 0 0 -0 0 0 0 0 0 0 0 0 0 0 0 0 0 0 0 0 0 0 0 0 0 0 0 0
0 0 0 0 0 0 0 0 0 0 0 0 0 0 0 0 0 0 0 0 0 0 0 0 0 0 0 0 0 -0 0 0 0 0 0 0 0 0 0 0 0 0 0 0
0 0 0 0 0 0 0 0 0 0 0 0 0 0 0 0 0 0 0 0 0 0 0 0 0 0 0 0 -0 0 0 0 0 0 0 0 0 0 0 0 0 0 0 0
0 0 0 -0 -0 -0 0 0 0 0 0 0 0 0 0 0 0 0 0 0 0 0 0 0 0 0 0 0 -0 0 0 0 0 0 0 0 0 0 0 0 0 0 0 0
0 0 -0 -0 -0 -0 0 0 0 0 0 0 0 0 0 0 0 0 0 0 0 0 0 0 0 0 0 0 0 -0 0 0 0 0 0 0 0 0 0 0 0 0 0 0
0 -0 -0 -0 -0 0 0 0 0 0 0 0 0 0 0 0 0 0 0 0 0 0 0 0 0 0 0 0 0 0 0 0 0 0 0 0 0 0 0 0 0 0 0 0
0 -0 -0 -0 -0 0 0 0 0 0 0 0 0 0 0 0 0 0 0 0 0 0 0 0 -0 0 0 0 0 0 0 0 0 0 0 0 0 0 0 0 0 0 0 0
0 0 -0 -0 -0 0 0 0 0 0 0 -0 0 -0 0 0 0 0 0 0 0 0 0 0 -0 0 -0 -0 0 0 0 0 0 0 0 0 0 0 0 0 0 0 0 0
0 0 0 0 0 0 0 0 0 0 0 0 0 -0 -0 -0 0 0 0 0 0 0 0 0 -0 -0 -0 0 0 0 0 0 0 0 0 0 0 0 0 0 1 0 0 -0
0 0 0 0 0 0 0 0 0 0 0 0 0 0 -0 0 -0 -0 0 0 0 0 0 0 0 0 0 0 0 0 0 0 0 0 0 0 0 0 0 0 0 0 -0 -0
0 0 0 0 0 0 0 0 0 0 0 0 0 0 0 0 0 0 0 0 0 0 0 0 0 0 0 0 0 0 0 0 0 0 0 0 0 0 0 0 0 -0 -0 -0
0 0 0 0 0 0 0 0 0 0 0 0 0 0 0 0 0 0 0 0 0 0 0 0 0 0 0 0 0 0 0 0 0 0 0 0 0 0 0 0 -0 0 -0 0
0 0 0 0 0 0 0 0 0 0 0 0 0 0 0 0 0 0 0 0 0 0 0 0 0 0 0 0 0 0 0 0 0 0 0 0 0 0 0 0 0 0 0 0
0 0 0 0 0 0 0 0 0 0 0 0 0 0 0 0 0 0 0 0 0 0 0 0 0 0 0 0 0 0 0 0 0 0 0 0 0 0 0 0 0 -0 0 0
0 0 0 0 0 0 0 0 0 0 0 0 0 0 0 0 0 0 0 0 0 0 0 0 0 0 0 0 0 0 0 0 0 0 0 0 0 0 0 0 0 0 0 0
0 0 0 0 0 0 0 0 0 0 0 0 -0 0 0 0 0 0 0 0 0 0 0 0 0 0 0 0 0 0 0 0 0 0 0 0 0 0 0 0 0 0 0 0
0 0 0 0 0 0 0 0 0 0 0 0 0 0 0 0 0 0 0 0 0 0 0 0 0 0 0 0 0 0 0 0 0 0 0 0 0 0 0 0 0 0 0 0
0 0 0 0 0 0 0 0 0 -0 0 0 0 0 0 0 0 0 0 0 0 0 0 0 0 0 0 0 0 0 0 0 0 0 0 0 0 0 0 0 0 0 0 0
0 0 0 0 0 0 0 0 0 0 0 0 0 0 0 0 0 0 0 0 0 0 0 0 0 0 -0 0 0 0 0 0 0 0 0 0 0 0 0 0 0 0 0 0
0 0 0 0 0 0 0 0 0 0 0 0 -0 0 0 0 0 0 0 0 0 0 0 0 -0 -0 -0 -0 0 0 0 0 -0 0 0 0 0 0 0 0 0 0 0 0
0 0 0 0 0 0 0 0 0 0 0 -0 0 0 0 0 0 0 0 0 0 0 0 0 -0 -0 -0 0 -0 -0 -0 0 -0 -0 -0 -0 -0 -0 0 0 0 0 0 0
0 0 0 0 0 0 0 0 0 0 0 0 0 0 0 0 0 0 0 0 0 0 0 0 -0 -0 0 0 -0 -0 -0 -0 -0 -0 -0 0 0 0 0 0 0 0 0 0
0 0 0 0 0 0 0 0 0 0 0 0 0 0 0 0 0 0 0 0 0 0 0 0 -0 0 0 0 0 0 0 0 -0 0 0 0 0 0 0 0 0 0 0 0
0 0 0 0 0 0 0 0 0 -0 -0 0 0 0 0 0 0 0 0 0 0 0 0 0 0 -0 0 0 0 0 0 0 -0 0 0 0 0 0 0 0 0 0 0 0
0 0 0 0 0 0 0 0 0 0 0 0 0 0 0 0 0 0 0 0 0 0 0 0 0 0 0 0 0 0 0 0 0 0 0 0 0 0 0 0 0 0 0 0
0 0 0 0 0 0 0 0 0 0 0 0 0 0 0 0 0 0 0 0 0 0 0 -0 -0 0 0 0 0 0 0 0 0 0 0 0 0 0 0 0 0 0 0 0
0 0 0 0 0 0 0 0 0 0 0 0 0 0 0 0 0 0 0 0 0 0 0 -0 0 0 0 0 0 0 0 0 0 0 0 0 0 0 0 0 0 0 0 0
Wind_Speed_500mb
32 34 37 35 39 30 20 11 4 6 47 9 6 6 12 9 9 8 13 9 19 11 7 12 10 19 16 33 23 21 19 12 15 22 11 10 10 17 17 9 8 3 8 9
31 34 35 33 36 33 32 21 8 19 34 5 3 7 6 7 7 9 8 8 11 7 9 7 12 7 17 48 18 20 16 3 7 22 15 5 9 5 9 12 7 12 12 7
31 33 35 33 30 26 23 8 4 8 27 6 6 5 9 7 13 15 17 12 13 7 10 11 10 6 6 17 27 37 35 9 15 17 17 6 8 5 6 13 9 11 11 15
35 37 37 34 26 21 12 6 3 6 4 3 5 5 5 11 8 9 12 8 9 3 10 10 9 4 12 16 12 14 18 18 13 12 13 11 6 11 12 10 14 15 14 20
38 37 35 33 24 16 10 7 10 14 7 15 5 4 3 5 5 8 10 11 20 11 13 15 23 5 1 11 10 9 9 12 9 9 6 9 7 8 9 4 8 14 13 1
35 39 36 30 27 19 7 7 4 5 9 10 3 4 4 8 19 15 20 20 13 12 7 26 36 32 18 22 7 4 5 13 9 10 5 7 4 7 4 7 3 15 14 16
34 36 37 32 26 23 16 11 9 4 7 5 3 6 12 13 14 11 18 29 6 8 48 36 15 19 18 20 18 18 7 4 7 7 6 6 11 4 10 14 3 9 13 16
33 34 34 34 27 20 17 11 5 3 7 11 15 10 8 23 28 11 13 15 31 39 17 7 11 12 13 11 15 16 14 11 8 10 6 7 5 7 16 14 8 12 23 17
32 32 33 32 29 23 17 10 15 6 5 11 6 5 16 6 6 12 12 22 23 26 6 6 6 8 7 9 8 12 10 10 10 6 10 11 15 7 23 10 1 14 24 36
30 30 30 30 31 26 21 8 6 8 10 26 19 12 8 6 5 6 15 24 20 22 6 4 7 10 5 4 7 5 7 7 15 6 5 12 11 13 16 13 14 39 49 62
29 28 28 28 29 28 22 8 15 12 14 54 56 40 23 13 4 2 16 14 7 9 9 5 4 4 3 5 5 3 11 12 8 7 7 6 21 4 21 16 31 72 59 72
31 31 29 27 26 26 27 9 18 27 31 39 41 48 54 49 51 30 9 9 12 8 6 2 3 4 7 5 6 3 3 10 7 15 16 10 63 23 20 39 58 56 68 67
35 34 31 29 25 23 27 34 24 25 29 67 53 55 28 36 62 69 26 14 14 8 1 9 5 5 6 3 8 5 2 10 6 2 8 8 43 31 28 43 69 72 79 82
36 34 31 30 28 27 30 38 35 30 16 13 23 16 32 19 18 36 67 62 13 10 4 3 5 4 7 4 6 5 6 4 4 6 7 22 20 42 48 51 66 70 70 77
36 35 33 32 31 34 39 41 36 31 28 11 37 83 48 35 50 56 49 71 65 20 1 4 5 6 3 2 5 8 10 9 7 10 14 6 22 51 52 65 70 71 71 63
35 33 33 32 32 38 35 8 10 15 36 12 10 24 44 25 21 40 65 62 54 37 11 7 12 6 5 2 6 9 10 12 3 9 16 20 52 57 59 62 62 62 63 67
32 34 35 33 32 36 27 11 4 13 11 8 14 14 15 13 17 22 34 54 28 28 18 16 10 0 11 3 6 4 12 24 17 32 62 44 55 58 63 66 69 69 69 77
34 36 36 36 36 41 36 7 29 31 21 12 7 11 16 16 12 15 22 26 21 18 14 10 5 13 11 8 27 34 36 39 27 18 7 58 55 62 66 67 71 69 73 64
33 35 38 32 13 9 2 9 9 35 20 10 8 6 8 32 5 12 14 14 5 3 5 5 7 6 12 19 37 53 43 42 38 5 23 61 72 69 72 75 74 68 64 62
24 25 8 6 2 8 7 6 4 13 18 18 9 10 8 22 18 10 8 12 6 2 6 12 8 8 31 21 56 74 60 54 61 59 45 41 65 81 79 75 67 63 67 61
7 7 8 12 14 9 8 9 12 12 8 17 21 36 15 22 1 6 10 3 7 8 9 7 7 8 12 26 49 72 63 55 78 80 80 84 78 80 77 67 58 53 54 54
11 18 32 15 6 10 6 8 4 9 9 10 9 18 27 11 12 3 6 4 2 9 16 7 6 9 28 40 52 57 64 62 66 70 71 76 75 71 63 58 55 51 46 45
8 5 7 6 7 3 10 13 7 7 7 7 27 10 7 11 11 6 1 3 4 2 4 8 10 9 25 41 43 47 50 57 69 60 69 72 71 62 55 55 50 46 45 43
5 5 9 8 9 9 4 6 6 21 24 42 26 9 6 2 4 4 3 2 1 3 4 9 8 31 28 36 45 55 53 64 67 68 76 76 66 59 46 40 49 50 46 42
6 5 8 9 13 23 28 37 32 42 41 31 13 8 7 3 6 0 1 4 9 11 9 8 20 23 38 44 54 64 64 68 67 64 73 74 63 53 54 54 51 43 42 43
8 13 9 23 15 15 18 30 33 38 28 22 9 4 4 9 8 10 13 9 11 9 8 13 9 42 63 56 65 69 69 68 70 77 71 61 50 51 56 53 48 48 45 43
9 14 29 41 33 34 39 26 39 32 23 3 6 7 10 1 6 8 9 9 6 11 21 5 31 57 71 70 69 71 70 70 75 72 62 54 56 56 55 58 53 44 37 33
Wind_Direction_500mb
352 350 344 341 335 343 331 334 347 130 145 94 89 159 196 230 263 293 253 234 214 229 264 289 237 199 227 197 154 166 193 163 242 235 242 239 199 211 167 135 216 103 143 263
354 352 349 352 350 355 355 339 302 166 181 136 228 280 275 250 264 230 255 268 220 243 263 252 205 208 250 245 162 184 172 246 277 306 350 358 221 164 133 119 92 187 145 231
350 348 345 2 355 349 348 343 22 142 217 274 108 36 286 264 295 280 231 247 233 267 256 212 284 298 298 324 218 215 150 141 165 215 215 181 313 217 181 121 120 167 215 144
348 347 350 360 359 353 7 2 344 17 266 297 343 182 308 303 291 260 313 300 232 4 297 295 234 265 319 329 337 147 142 198 170 228 227 170 218 251 186 181 166 149 205 185
357 347 345 357 3 2 36 36 9 351 304 301 258 73 89 266 324 244 268 227 292 247 212 229 279 224 239 249 323 127 299 200 137 203 235 217 233 22 114 83 129 78 100 161
355 357 353 355 4 14 31 8 4 330 307 318 64 152 322 285 330 264 246 280 297 274 234 297 271 257 234 240 191 277 139 144 108 213 163 133 16 181 136 119 72 144 149 213
354 356 360 356 360 13 14 353 346 358 274 284 210 334 302 275 292 260 273 297 218 282 313 304 270 241 251 242 246 175 178 89 93 140 98 190 235 214 208 126 80 148 113 147
349 352 356 360 354 356 353 318 271 243 267 262 285 235 265 294 302 270 250 275 318 315 289 18 16 342 353 279 241 179 177 134 80 126 154 267 234 174 149 141 213 212 137 125
340 344 349 352 357 351 345 310 231 212 314 246 279 324 292 282 283 308 270 317 341 351 59 75 151 232 231 294 313 54 79 65 113 124 135 187 227 202 134 99 191 182 147 139
332 336 339 343 347 348 347 274 188 243 261 268 262 227 254 256 267 255 298 338 341 360 43 105 181 238 208 227 264 297 58 25 147 143 136 288 239 205 133 102 224 157 160 155
328 328 329 332 336 338 347 268 234 247 257 268 264 255 253 256 287 251 323 346 308 2 55 75 311 289 349 29 308 202 176 139 161 106 109 189 171 108 165 169 161 163 168 166
329 326 323 323 325 331 327 304 237 266 267 265 274 271 266 259 255 254 279 281 283 241 100 184 105 303 359 104 240 303 199 171 197 175 203 219 175 200 164 160 159 166 165 169
328 329 324 318 314 313 310 303 304 299 284 290 274 272 285 260 247 241 231 254 239 235 150 165 148 233 147 246 250 280 251 35 218 72 262 237 158 161 171 158 162 168 176 176
323 321 323 320 310 301 297 294 295 290 285 276 288 287 281 270 221 230 231 225 233 211 195 339 125 195 161 238 278 253 211 9 319 285 345 83 119 160 166 165 166 170 174 179
319 317 314 314 309 304 296 295 282 257 222 285 292 301 297 247 242 241 230 218 227 230 167 47 251 186 161 212 18 259 183 186 178 226 213 146 169 143 159 161 163 170 168 161
312 312 310 309 311 308 320 295 286 242 210 280 300 298 288 274 239 224 218 213 215 215 195 205 258 189 146 111 250 255 219 171 168 258 216 169 141 143 160 153 157 164 170 176
309 309 306 303 301 294 284 270 266 148 139 257 292 288 281 321 202 185 190 203 187 196 187 200 246 343 187 190 241 231 146 94 72 149 139 115 140 143 150 151 158 164 165 166
308 308 302 297 288 284 286 312 229 215 261 258 271 275 306 11 189 132 149 149 168 198 187 121 89 267 176 252 230 194 157 93 97 117 158 149 151 150 153 161 161 156 155 150
309 306 305 295 267 249 314 332 196 213 220 277 243 271 279 338 332 137 125 140 150 197 177 177 185 189 212 229 192 195 178 127 107 271 171 155 156 160 161 162 161 150 150 157
314 314 288 279 55 279 274 238 214 177 204 231 245 257 276 329 343 321 87 137 123 65 227 133 214 257 260 256 199 184 181 169 167 177 161 157 147 162 160 160 155 156 158 160
328 287 268 278 293 255 224 228 191 194 246 220 236 222 230 270 256 267 23 161 178 121 265 191 209 262 245 192 173 187 190 178 186 202 193 183 174 169 161 153 152 156 158 161
288 292 298 300 245 226 211 220 231 199 233 221 217 226 209 230 215 222 347 149 98 199 143 144 248 247 222 195 193 193 196 194 192 194 186 178 178 172 161 155 155 156 157 160
290 275 267 251 241 254 223 203 236 226 238 307 347 305 222 181 206 93 239 72 246 184 187 222 231 226 201 201 195 196 196 198 193 188 186 185 180 172 165 158 158 157 162 166
261 258 276 202 222 247 289 348 259 295 285 309 309 291 263 251 77 131 89 230 66 272 259 231 243 232 211 194 188 181 184 187 185 182 181 181 173 166 167 167 166 167 170 169
260 243 247 241 265 286 294 309 306 306 310 314 302 206 236 217 81 298 161 209 224 215 230 230 240 204 177 169 178 179 176 180 180 177 173 170 168 166 169 171 169 170 173 173
241 233 258 267 297 286 279 281 281 321 297 313 219 227 214 233 159 167 203 176 210 240 232 287 235 171 166 165 171 169 172 176 172 168 164 164 168 171 172 170 171 174 174 172
242 245 243 252 277 270 277 287 302 310 315 218 118 249 229 150 206 202 178 213 232 312 319 321 165 163 164 164 165 166 169 169 165 161 164 167 166 166 164 165 170 173 173 170
Wind_Speed_850mb
32 34 37 35 39 30 20 11 4 6 47 9 6 6 12 9 9 8 13 9 19 11 7 12 10 19 16 33 23 21 19 12 15 22 11 10 10 17 17 9 8 3 8 9
31 34 35 33 36 33 32 21 8 19 34 5 3 7 6 7 7 9 8 8 11 7 9 7 12 7 17 48 18 20 16 3 7 22 15 5 9 5 9 12 7 12 12 7
31 33 35 33 30 26 23 8 4 8 27 6 6 5 9 7 13 15 17 12 13 7 10 11 10 6 6 17 27 37 35 9 15 17 17 6 8 5 6 13 9 11 11 15
35 37 37 34 26 21 12 6 3 6 4 3 5 5 5 11 8 9 12 8 9 3 10 10 9 4 12 16 12 14 18 18 13 12 13 11 6 11 12 10 14 15 14 20
38 37 35 33 24 16 10 7 10 14 7 15 5 4 3 5 5 8 10 11 20 11 13 15 23 5 1 11 10 9 9 12 9 9 6 9 7 8 9 4 8 14 13 1
35 39 36 30 27 19 7 7 4 5 9 10 3 4 4 8 19 15 20 20 13 12 7 26 36 32 18 22 7 4 5 13 9 10 5 7 4 7 4 7 3 15 14 16
34 36 37 32 26 23 16 11 9 4 7 5 3 6 12 13 14 11 18 29 6 8 48 36 15 19 18 20 18 18 7 4 7 7 6 6 11 4 10 14 3 9 13 16
33 34 34 34 27 20 17 11 5 3 7 11 15 10 8 23 28 11 13 15 31 39 17 7 11 12 13 11 15 16 14 11 8 10 6 7 5 7 16 14 8 12 23 17
32 32 33 32 29 23 17 10 15 6 5 11 6 5 16 6 6 12 12 22 23 26 6 6 6 8 7 9 8 12 10 10 10 6 10 11 15 7 23 10 1 14 24 36
30 30 30 30 31 26 21 8 6 8 10 26 19 12 8 6 5 6 15 24 20 22 6 4 7 10 5 4 7 5 7 7 15 6 5 12 11 13 16 13 14 39 49 62
29 28 28 28 29 28 22 8 15 12 14 54 56 40 23 13 4 2 16 14 7 9 9 5 4 4 3 5 5 3 11 12 8 7 7 6 21 4 21 16 31 72 59 72
31 31 29 27 26 26 27 9 18 27 31 39 41 48 54 49 51 30 9 9 12 8 6 2 3 4 7 5 6 3 3 10 7 15 16 10 63 23 20 39 58 56 68 67
35 34 31 29 25 23 27 34 24 25 29 67 53 55 28 36 62 69 26 14 14 8 1 9 5 5 6 3 8 5 2 10 6 2 8 8 43 31 28 43 69 72 79 82
36 34 31 30 28 27 30 38 35 30 16 13 23 16 32 19 18 36 67 62 13 10 4 3 5 4 7 4 6 5 6 4 4 6 7 22 20 42 48 51 66 70 70 77
36 35 33 32 31 34 39 41 36 31 28 11 37 83 48 35 50 56 49 71 65 20 1 4 5 6 3 2 5 8 10 9 7 10 14 6 22 51 52 65 70 71 71 63
35 33 33 32 32 38 35 8 10 15 36 12 10 24 44 25 21 40 65 62 54 37 11 7 12 6 5 2 6 9 10 12 3 9 16 20 52 57 59 62 62 62 63 67
32 34 35 33 32 36 27 11 4 13 11 8 14 14 15 13 17 22 34 54 28 28 18 16 10 0 11 3 6 4 12 24 17 32 62 44 55 58 63 66 69 69 69 77
34 36 36 36 36 41 36 7 29 31 21 12 7 11 16 16 12 15 22 26 21 18 14 10 5 13 11 8 27 34 36 39 27 18 7 58 55 62 66 67 71 69 73 64
33 35 38 32 13 9 2 9 9 35 20 10 8 6 8 32 5 12 14 14 5 3 5 5 7 6 12 19 37 53 43 42 38 5 23 61 72 69 72 75 74 68 64 62
24 25 8 6 2 8 7 6 4 13 18 18 9 10 8 22 18 10 8 12 6 2 6 12 8 8 31 21 56 74 60 54 61 59 45 41 65 81 79 75 67 63 67 61
7 7 8 12 14 9 8 9 12 12 8 17 21 36 15 22 1 6 10 3 7 8 9 7 7 8 12 26 49 72 63 55 78 80 80 84 78 80 77 67 58 53 54 54
11 18 32 15 6 10 6 8 4 9 9 10 9 18 27 11 12 3 6 4 2 9 16 7 6 9 28 40 52 57 64 62 66 70 71 76 75 71 63 58 55 51 46 45
8 5 7 6 7 3 10 13 7 7 7 7 27 10 7 11 11 6 1 3 4 2 4 8 10 9 25 41 43 47 50 57 69 60 69 72 71 62 55 55 50 46 45 43
5 5 9 8 9 9 4 6 6 21 24 42 26 9 6 2 4 4 3 2 1 3 4 9 8 31 28 36 45 55 53 64 67 68 76 76 66 59 46 40 49 50 46 42
6 5 8 9 13 23 28 37 32 42 41 31 13 8 7 3 6 0 1 4 9 11 9 8 20 23 38 44 54 64 64 68 67 64 73 74 63 53 54 54 51 43 42 43
8 13 9 23 15 15 18 30 33 38 28 22 9 4 4 9 8 10 13 9 11 9 8 13 9 42 63 56 65 69 69 68 70 77 71 61 50 51 56 53 48 48 45 43
9 14 29 41 33 34 39 26 39 32 23 3 6 7 10 1 6 8 9 9 6 11 21 5 31 57 71 70 69 71 70 70 75 72 62 54 56 56 55 58 53 44 37 33
Wind_Direction_850mb
352 350 344 341 335 343 331 334 347 130 145 94 89 159 196 230 263 293 253 234 214 229 264 289 237 199 227 197 154 166 193 163 242 235 242 239 199 211 167 135 216 103 143 263
354 352 349 352 350 355 355 339 302 166 181 136 228 280 275 250 264 230 255 268 220 243 263 252 205 208 250 245 162 184 172 246 277 306 350 358 221 164 133 119 92 187 145 231
350 348 345 2 355 349 348 343 22 142 217 274 108 36 286 264 295 280 231 247 233 267 256 212 284 298 298 324 218 215 150 141 165 215 215 181 313 217 181 121 120 167 215 144
348 347 350 360 359 353 7 2 344 17 266 297 343 182 308 303 291 260 313 300 232 4 297 295 234 265 319 329 337 147 142 198 170 228 227 170 218 251 186 181 166 149 205 185
357 347 345 357 3 2 36 36 9 351 304 301 258 73 89 266 324 244 268 227 292 247 212 229 279 224 239 249 323 127 299 200 137 203 235 217 233 22 114 83 129 78 100 161
355 357 353 355 4 14 31 8 4 330 307 318 64 152 322 285 330 264 246 280 297 274 234 297 271 257 234 240 191 277 139 144 108 213 163 133 16 181 136 119 72 144 149 213
354 356 360 356 360 13 14 353 346 358 274 284 210 334 302 275 292 260 273 297 218 282 313 304 270 241 251 242 246 175 178 89 93 140 98 190 235 214 208 126 80 148 113 147
349 352 356 360 354 356 353 318 271 243 267 262 285 235 265 294 302 270 250 275 318 315 289 18 16 342 353 279 241 179 177 134 80 126 154 267 234 174 149 141 213 212 137 125
340 344 349 352 357 351 345 310 231 212 314 246 279 324 292 282 283 308 270 317 341 351 59 75 151 232 231 294 313 54 79 65 113 124 135 187 227 202 134 99 191 182 147 139
332 336 339 343 347 348 347 274 188 243 261 268 262 227 254 256 267 255 298 338 341 360 43 105 181 238 208 227 264 297 58 25 147 143 136 288 239 205 133 102 224 157 160 155
328 328 329 332 336 338 347 268 234 247 257 268 264 255 253 256 287 251 323 346 308 2 55 75 311 289 349 29 308 202 176 139 161 106 109 189 171 108 165 169 161 163 168 166
329 326 323 323 325 331 327 304 237 266 267 265 274 271 266 259 255 254 279 281 283 241 100 184 105 303 359 104 240 303 199 171 197 175 203 219 175 200 164 160 159 166 165 169
328 329 324 318 314 313 310 303 304 299 284 290 274 272 285 260 247 241 231 254 239 235 150 165 148 233 147 246 250 280 251 35 218 72 262 237 158 161 171 158 162 168 176 176
323 321 323 320 310 301 297 294 295 290 285 276 288 287 281 270 221 230 231 225 233 211 195 339 125 195 161 238 278 253 211 9 319 285 345 83 119 160 166 165 166 170 174 179
319 317 314 314 309 304 296 295 282 257 222 285 292 301 297 247 242 241 230 218 227 230 167 47 251 186 161 212 18 259 183 186 178 226 213 146 169 143 159 161 163 170 168 161
312 312 310 309 311 308 320 295 286 242 210 280 300 298 288 274 239 224 218 213 215 215 195 205 258 189 146 111 250 255 219 171 168 258 216 169 141 143 160 153 157 164 170 176
309 309 306 303 301 294 284 270 266 148 139 257 292 288 281 321 202 185 190 203 187 196 187 200 246 343 187 190 241 231 146 94 72 149 139 115 140 143 150 151 158 164 165 166
308 308 302 297 288 284 286 312 229 215 261 258 271 275 306 11 189 132 149 149 168 198 187 121 89 267 176 252 230 194 157 93 97 117 158 149 151 150 153 161 161 156 155 150
309 306 305 295 267 249 314 332 196 213 220 277 243 271 279 338 332 137 125 140 150 197 177 177 185 189 212 229 192 195 178 127 107 271 171 155 156 160 161 162 161 150 150 157
314 314 288 279 55 279 274 238 214 177 204 231 245 257 276 329 343 321 87 137 123 65 227 133 214 257 260 256 199 184 181 169 167 177 161 157 147 162 160 160 155 156 158 160
328 287 268 278 293 255 224 228 191 194 246 220 236 222 230 270 256 267 23 161 178 121 265 191 209 262 245 192 173 187 190 178 186 202 193 183 174 169 161 153 152 156 158 161
288 292 298 300 245 226 211 220 231 199 233 221 217 226 209 230 215 222 347 149 98 199 143 144 248 247 222 195 193 193 196 194 192 194 186 178 178 172 161 155 155 156 157 160
290 275 267 251 241 254 223 203 236 226 238 307 347 305 222 181 206 93 239 72 246 184 187 222 231 226 201 201 195 196 196 198 193 188 186 185 180 172 165 158 158 157 162 166
261 258 276 202 222 247 289 348 259 295 285 309 309 291 263 251 77 131 89 230 66 272 259 231 243 232 211 194 188 181 184 187 185 182 181 181 173 166 167 167 166 167 170 169
260 243 247 241 265 286 294 309 306 306 310 314 302 206 236 217 81 298 161 209 224 215 230 230 240 204 177 169 178 179 176 180 180 177 173 170 168 166 169 171 169 170 173 173
241 233 258 267 297 286 279 281 281 321 297 313 219 227 214 233 159 167 203 176 210 240 232 287 235 171 166 165 171 169 172 176 172 168 164 164 168 171 172 170 171 174 174 172
242 245 243 252 277 270 277 287 302 310 315 218 118 249 229 150 206 202 178 213 232 312 319 321 165 163 164 164 165 166 169 169 165 161 164 167 166 166 164 165 170 173 173 170